Location: Dampvalley
(47.9094°N, 6.1967°E)
Time: 23:23:16
(UTC+00:00)

SO-50 - Pass Details

Date: 29 November 2021
Orbit: 595 x 689 km, 64.6° (Epoch: 24 January)

Event Time Altitude Azimuth Distance (km) Brightness Sun altitude
Rises 19:12:52 0° 308° (NW) 3,031 ? -34.0°
Reaches altitude 10° 19:15:56 10° 288° (WNW) 2,125 ? -34.5°
Maximum altitude 19:18:55 16° 249° (WSW) 1,737 ? -35.0°
Enters shadow 19:20:47 13° 223° (SW) 1,905 ? -35.3°
